CZ-6A DEB, 61136

Orbit data source: Space-Track

CZ-6A DEB, 61136 is space debris in LEO originally from a launch on Tue, 06 Aug 2024 UTC launched from the Taiyaun Space Center, China (TSC). Debris objects in space refer to the collection of defunct objects orbiting the Earth. Examples of debris include non-operational satellites, rocket bodies, and fragments generated from explosions, collisions, or faulty payload assembly.

Loading next visibility...
Identifier
61136, 2024-140QE
Orbit
LEO
Country
Flag of CNCN / PRC
Related business
Manufacturer
SAST
Mission
Spacecraft
Bus & Motor
Unknown
Mass
Unknown
Launch date (UTC)
2024-08-06 (2 years ago)
Launch vehicle
Unknown
Launch site
Taiyaun Space Center, China (TSC)
Object type
Payload
Rocket body
Debris
Shape & HBR
Unknown shape, 0.1 m
Radar Cross Section
Small (<0.1 m²)

Expand to show TLE details & history
Last TLE update: 15 hours ago

TLE from 15 hours ago
0 CZ-6A DEB
1 61136U 24140QE  26171.29380024  .00002584  00000-0  10731-2 0  9996
2 61136  89.1129 283.2283 0087304 220.8194 138.6438 14.24196661 94753
Epoch: 2026-06-20T07:03Z
TLE epoch observation values (Epoch: 2026-06-20T07:03:04.340Z)
Latitude
-0.00007°
Longitude
-91.05028°
Altitude
861.614 km
Speed
7.397 km/s
True Right ascension
18h 52m 54s
True Declination
0° 00' 00"
Sunlit
Object was in full shadow at epoch
Visualization orbit readout
Latitude
Unknown
Longitude
Unknown
Altitude
Unknown
Speed
Unknown
Apparent Right ascension
Unknown
Apparent Declination
Unknown
Sunlit
N/A
Visualization observer readout
Local Sidereal Time
08:42:21
Azimuth
Unknown
Elevation
Unknown
Doppler factor
Unknown
Orbital elements
Apogee altitude
870.878 km
Perigee altitude
745.4 km
Semi-major axis
7,186.276 km
Eccentricity
0.00873
Inclination
89.1129°
RAAN
283.2283°
Arg. of periapsis
220.8194°
True anomaly
139.29944°
Mean anomaly
138.6438°
Eccentric anomaly
138.97215°
Mean motion
3.56277 °/min
Orbital period
101.05 mins
BSTAR
0.0010731
Loading maneuver chart data...
Computing Atmospheric mass density...
Loading historical data...
Loading historical data...
Loading historical data...
Loading historical data...
Loading historical data...
Loading historical data...
Loading historical data...

Documentation

Showing up to 5 results
|